Regional Weather Roundup
Issued by NWS

Home | Current Version | Previous Version | Graphics & Text | Print | Product List | Glossary On
Versions: 1 2 3 4 5 6 7 8 9 10 11 12 13 14 15 16 17 18 19 20 21 22 23 24 25 26 27 28 29 30 31 32 33 34 35 36 37 38 39 40 41 42 43 44 45 46 47 48 49 50
000
ASUS43 KMKX 280500
RWRWI

WISCONSIN REGIONAL WEATHER ROUNDUP
NATIONAL WEATHER SERVICE MILWAUKEE/SULLIVAN WI
1200 AM CDT FRI APR 28 2017

NOTE: "FAIR" INDICATES FEW OR NO CLOUDS BELOW 12,000 FEET WITH NO
SIGNIFICANT WEATHER AND/OR OBSTRUCTIONS TO VISIBILITY.

WIZ001-002-006>008-014>016-023>028-280600-
NORTHWEST WISCONSIN

CITY           SKY/WX    TMP DP  RH WIND       PRES   REMARKS
SUPERIOR ARPT  CLOUDY    31  25  79 W12       29.71R WCI  21
ASHLAND        CLOUDY    29  24  82 SW13      29.69R WCI  19
HAYWARD        CLOUDY    30  25  81 SW9       29.70R WCI  22
SIREN          CLOUDY    30  29  96 CALM      29.73S
CUMBERLAND     CLOUDY    30  27  86 W9        29.72S WCI  22
RICE LAKE      CLOUDY    31  27  83 SW9       29.75R WCI  23
CHETEK         CLOUDY    31  26  82 W5        29.74R WCI  26
LADYSMITH      CLOUDY    31  27  84 W8        29.74R WCI  23
EAU CLAIRE     NOT AVBL
MENOMONIE      CLOUDY    33  25  71 SW10      29.78R WCI  25
NEW RICHMOND   CLOUDY    32  24  71 W7        29.76S WCI  26
OSCEOLA        CLOUDY    33  26  73 W10       29.79R WCI  25
$$

WIZ003>005-009-010-017-018-280600-
NORTH CENTRAL WISCONSIN

CITY           SKY/WX    TMP DP  RH WIND       PRES   REMARKS
MANITOWISH WTR NOT AVBL
ARBOR VITAE    CLOUDY    29  26  86 W10       29.65R WCI  20
WOODRUFF       CLOUDY    29  26  86 W10       29.65R WCI  20
RHINELANDER    CLOUDY    29  26  89 W12       29.68R WCI  19
EAGLE RIVER    CLOUDY    28  22  79 W14       29.64S WCI  17
LAND O LAKES   CLOUDY    28  25  91 W7        29.65S WCI  20
PHILLIPS       CLOUDY    28  27  97 W6        29.68R WCI  21
TOMAHAWK       CLOUDY    28  24  85 W7        29.70R WCI  21
MEDFORD        MIX PCPN  29  25  86 W14       29.71R WCI  18
MERRILL        CLOUDY    30  29  94 W8        29.71R WCI  23
$$

WIZ029-030-035-036-043>047-280600-
CENTRAL WISCONSIN

CITY           SKY/WX    TMP DP  RH WIND       PRES   REMARKS
WAUSAU         CLOUDY    31  28  89 W14G23    29.71R WCI  21
MOSINEE        MIX PCPN  32  32 100 W14       29.73R WCI  22
MARSHFIELD     CLOUDY    32  27  81 W14G20    29.73R WCI  22
STEVENS POINT  CLOUDY    32  31  96 W8        29.74R WCI  25
WAUPACA        CLOUDY    38  33  79 W10       29.75R WCI  32
WAUTOMA        MIX PCPN  36  33  89 W14       29.77  WCI  27
WISC RAPIDS    CLOUDY    34  31  88 W8        29.77R WCI  27
CAMP DOUGLAS   NOT AVBL
$$

WIZ011>013-019>022-031-037>040-048>050-280600-
NORTHEAST WISCONSIN

CITY           SKY/WX    TMP DP  RH WIND       PRES   REMARKS
ANTIGO         CLOUDY    30  28  95 W12       29.69R WCI  20
SHAWANO        CLOUDY    37  32  83 W7        29.73R WCI  31
OCONTO         CLOUDY    36  31  85 W10G17    29.73  WCI  28
STURGEON BAY   CLOUDY    37  32  82 W12       29.73R WCI  29
GREEN BAY      CLOUDY    39  36  89 W12       29.74R WCI  32
MANITOWOC      NOT AVBL
APPLETON       CLOUDY    36  34  93 W9        29.73R WCI  29
CLINTONVILLE   CLOUDY    36  32  87 W8        29.73R WCI  29
OSHKOSH        CLOUDY    39  33  79 W8        29.75R WCI  33
$$

WIZ032>034-041-042-053>061-280600-
SOUTHWEST WISCONSIN

CITY           SKY/WX    TMP DP  RH WIND       PRES   REMARKS
LA CROSSE      CLOUDY    38  29  70 W13       29.81R WCI  30
SPARTA         CLOUDY    36  30  79 W12G20    29.80R WCI  27
VIROQUA        CLOUDY    34  29  82 W13G18    29.79R WCI  25
BOSCOBEL       CLOUDY    41  30  65 W10       29.84R
PRAIRIE DU CHI CLOUDY    39  29  66 W9G20     29.84R WCI  33
PLATTEVILLE    CLEAR     36  32  86 W5        29.83R WCI  32
$$

WIZ056-057-062-063-064-067-068-280600-
SOUTH CENTRAL WISCONSIN

CITY           SKY/WX    TMP DP  RH WIND       PRES   REMARKS
REEDSBURG      NOT AVBL
BARABOO/DELLS  CLOUDY    37  29  72 W15G25    29.78R WCI  28
LONE ROCK      NOT AVBL
MINERAL POINT  CLOUDY    39  32  75 W13G21    29.81R WCI  32
MADISON        CLOUDY    39  29  67 SW6G16    29.81R WCI  35
MIDDLETON      CLOUDY    39  31  71 SW8       29.81R WCI  34
WATERTOWN      CLOUDY    38  32  77 SW12      29.80R WCI  31
MONROE         CLEAR     36  32  87 W10       29.82R WCI  28
JANESVILLE     PTCLDY    39  34  81 W6        29.83R WCI  35
$$

WIZ051-052-058>065-066-070>072-280600-
SOUTHEAST WISCONSIN

CITY           SKY/WX    TMP DP  RH WIND       PRES   REMARKS
MILWAUKEE      MOCLDY    44  33  65 W16G22    29.81R
WAUKESHA       CLOUDY    37  32  81 W14G20    29.81R WCI  29
MILWAUKEE/TIMM CLOUDY    41  30  65 W14G23    29.81R
RACINE         CLOUDY    43  33  68 SW7G22    29.84R
KENOSHA        CLOUDY    43  35  73 SW13      29.83R
FOND DU LAC    CLOUDY    40  31  70 SW9G18    29.77R WCI  34
SHEBOYGAN      CLOUDY    40  36  86 W15G22    29.76R WCI  32
WEST BEND      CLOUDY    39  32  75 SW14G22   29.77R WCI  31
JUNEAU         CLOUDY    38  31  77 SW16      29.80R WCI  28
$$

LSZ147-162-280600-
LAKE SUPERIOR

STATION/POSITION TIME  TEMP    WIND        PRES    WAVE
                       AIR SEA DIR/SP/G            HT/PER
                 (UTC) (F)     (DEG/KT/KT) (MB)    (FT/S)
DEVILS ISLAND    0400   32     260/ 18/ 22 1004.6R
PORT WING        0430   33     270/ 14/ 20 1005.4R
SAXON HARBOR     0430   30     210/  7/ 11 1005.1R
$$

LMZ867-665-643>646-280600-
LAKE MICHIGAN

STATION/POSITION TIME  TEMP    WIND        PRES    WAVE
                       AIR SEA DIR/SP/G            HT/PER
                 (UTC) (F)     (DEG/KT/KT) (MB)    (FT/S)
CHAMBERS ISLAND  0440   37     230/  9/ 17 1005.8R
N MID LAKE BUOY  0350   38 37  230/ 10/ 12 1006.1R   3/ 6
NORTHPORT PIER   0440   38     260/  3/ 16 1005.8R
KEWAUNEE LAKESHO 0430   40     260/ 11/ 16 1006.3R
SHEBOYGAN LAKESH 0400   42     250/ 18/ 23 1007.6R
PORT WASHINGTON  0440   43     260/ 12/ 22 1009.8R
MILWAUKEE LAKESH 0420   43     250/ 12/ 14   N/A
S MID LAKE BUOY  0350   43 41  260/ 17/ 21 1009.8R   3/ 5
KENOSHA   LAKESH 0400   44     250/ 11/ 17 1010.2
$$

TC  - TEMPERATURE IN CELSIUS
VSB - VISIBILITY IN STATUTE MILES
WCI - WIND CHILL INDEX
HX  - HEAT INDEX





USA.gov is the U.S. government's official web portal to all federal, state and local government web resources and services.